Year,Month,Day,Hour,Minute,Value (Times are PST for temperature in C)
2018,07,12,00,00,16.80
2018,07,12,00,01,16.80
2018,07,12,00,02,16.70
2018,07,12,00,03,16.70
2018,07,12,00,04,16.70
2018,07,12,00,05,16.60
2018,07,12,00,06,16.60
2018,07,12,00,07,16.60
2018,07,12,00,08,16.50
2018,07,12,00,09,16.50
2018,07,12,00,10,16.40
2018,07,12,00,11,16.40
2018,07,12,00,12,16.40
2018,07,12,00,13,16.30
2018,07,12,00,14,16.30
2018,07,12,00,15,16.30
2018,07,12,00,16,16.30
2018,07,12,00,17,16.30
2018,07,12,00,18,16.20
2018,07,12,00,19,16.20
2018,07,12,00,20,16.20
2018,07,12,00,21,16.20
2018,07,12,00,22,16.20
2018,07,12,00,23,16.10
2018,07,12,00,24,16.10
2018,07,12,00,25,16.10
2018,07,12,00,26,16.10
2018,07,12,00,27,16.00
2018,07,12,00,28,16.00
2018,07,12,00,29,16.00
2018,07,12,00,30,16.00
2018,07,12,00,31,15.90
2018,07,12,00,32,15.90
2018,07,12,00,33,15.90
2018,07,12,00,34,15.90
2018,07,12,00,35,15.90
2018,07,12,00,36,15.90
2018,07,12,00,37,15.90
2018,07,12,00,38,15.80
2018,07,12,00,39,15.80
2018,07,12,00,40,15.80
2018,07,12,00,41,15.80
2018,07,12,00,42,15.80
2018,07,12,00,43,15.80
2018,07,12,00,44,15.80
2018,07,12,00,45,15.70
2018,07,12,00,46,15.70
2018,07,12,00,47,15.70
2018,07,12,00,48,15.70
2018,07,12,00,49,15.60
2018,07,12,00,50,15.60
2018,07,12,00,51,15.60
2018,07,12,00,52,15.60
2018,07,12,00,53,15.50
2018,07,12,00,54,15.50
2018,07,12,00,55,15.50
2018,07,12,00,56,15.50
2018,07,12,00,57,15.40
2018,07,12,00,58,15.40
2018,07,12,00,59,15.40
2018,07,12,01,00,15.40
2018,07,12,01,01,15.40
2018,07,12,01,02,15.40
2018,07,12,01,03,15.30
2018,07,12,01,04,15.30
2018,07,12,01,05,15.30
2018,07,12,01,06,15.30
2018,07,12,01,07,15.30
2018,07,12,01,08,15.30
2018,07,12,01,09,15.30
2018,07,12,01,10,15.30
2018,07,12,01,11,15.20
2018,07,12,01,12,15.20
2018,07,12,01,13,15.20
2018,07,12,01,14,15.20
2018,07,12,01,15,15.20
2018,07,12,01,16,15.20
2018,07,12,01,17,15.10
2018,07,12,01,18,15.10
2018,07,12,01,19,15.10
2018,07,12,01,20,15.00
2018,07,12,01,21,15.00
2018,07,12,01,22,15.00
2018,07,12,01,23,15.00
2018,07,12,01,24,14.90
2018,07,12,01,25,14.90
2018,07,12,01,26,14.90
2018,07,12,01,27,14.90
2018,07,12,01,28,14.90
2018,07,12,01,29,14.90
2018,07,12,01,30,14.90
2018,07,12,01,31,14.90
2018,07,12,01,32,14.90
2018,07,12,01,33,14.90
2018,07,12,01,34,14.80
2018,07,12,01,35,14.80
2018,07,12,01,36,14.80
2018,07,12,01,37,14.80
2018,07,12,01,38,14.80
2018,07,12,01,39,14.80
2018,07,12,01,40,14.80
2018,07,12,01,41,14.80
2018,07,12,01,42,14.80
2018,07,12,01,43,14.80
2018,07,12,01,44,14.80
2018,07,12,01,45,14.80
2018,07,12,01,46,14.80
2018,07,12,01,47,14.80
2018,07,12,01,48,14.80
2018,07,12,01,49,14.80
2018,07,12,01,50,14.80
2018,07,12,01,51,14.80
2018,07,12,01,52,14.80
2018,07,12,01,53,14.80
2018,07,12,01,54,14.80
2018,07,12,01,55,14.80
2018,07,12,01,56,14.80
2018,07,12,01,57,14.80
2018,07,12,01,58,14.80
2018,07,12,01,59,14.80
2018,07,12,02,00,14.80
2018,07,12,02,01,14.80
2018,07,12,02,02,14.80
2018,07,12,02,03,14.80
2018,07,12,02,04,14.80
2018,07,12,02,05,14.80
2018,07,12,02,06,14.70
2018,07,12,02,07,14.70
2018,07,12,02,08,14.70
2018,07,12,02,09,14.70
2018,07,12,02,10,14.70
2018,07,12,02,11,14.70
2018,07,12,02,12,14.70
2018,07,12,02,13,14.60
2018,07,12,02,14,14.60
2018,07,12,02,15,14.60
2018,07,12,02,16,14.60
2018,07,12,02,17,14.50
2018,07,12,02,18,14.50
2018,07,12,02,19,14.40
2018,07,12,02,20,14.40
2018,07,12,02,21,14.40
2018,07,12,02,22,14.40
2018,07,12,02,23,14.40
2018,07,12,02,24,14.40
2018,07,12,02,25,14.30
2018,07,12,02,26,14.30
2018,07,12,02,27,14.30
2018,07,12,02,28,14.30
2018,07,12,02,29,14.30
2018,07,12,02,30,14.30
2018,07,12,02,31,14.30
2018,07,12,02,32,14.30
2018,07,12,02,33,14.20
2018,07,12,02,34,14.20
2018,07,12,02,35,14.20
2018,07,12,02,36,14.20
2018,07,12,02,37,14.20
2018,07,12,02,38,14.20
2018,07,12,02,39,14.20
2018,07,12,02,40,14.20
2018,07,12,02,41,14.20
2018,07,12,02,42,14.20
2018,07,12,02,43,14.10
2018,07,12,02,44,14.10
2018,07,12,02,45,14.10
2018,07,12,02,46,14.10
2018,07,12,02,47,14.10
2018,07,12,02,48,14.10
2018,07,12,02,49,14.00
2018,07,12,02,50,14.00
2018,07,12,02,51,14.00
2018,07,12,02,52,14.00
2018,07,12,02,53,14.00
2018,07,12,02,54,13.90
2018,07,12,02,55,13.90
2018,07,12,02,56,13.90
2018,07,12,02,57,13.90
2018,07,12,02,58,13.90
2018,07,12,02,59,13.90
2018,07,12,03,00,13.90
2018,07,12,03,01,13.80
2018,07,12,03,02,13.80
2018,07,12,03,03,13.80
2018,07,12,03,04,13.80
2018,07,12,03,05,13.80
2018,07,12,03,06,13.80
2018,07,12,03,07,13.70
2018,07,12,03,08,13.70
2018,07,12,03,09,13.70
2018,07,12,03,10,13.70
2018,07,12,03,11,13.70
2018,07,12,03,12,13.70
2018,07,12,03,13,13.70
2018,07,12,03,14,13.60
2018,07,12,03,15,13.60
2018,07,12,03,16,13.60
2018,07,12,03,17,13.60
2018,07,12,03,18,13.60
2018,07,12,03,19,13.60
2018,07,12,03,20,13.60
2018,07,12,03,21,13.60
2018,07,12,03,22,13.50
2018,07,12,03,23,13.50
2018,07,12,03,24,13.50
2018,07,12,03,25,13.50
2018,07,12,03,26,13.40
2018,07,12,03,27,13.40
2018,07,12,03,28,13.40
2018,07,12,03,29,13.40
2018,07,12,03,30,13.40
2018,07,12,03,31,13.40
2018,07,12,03,32,13.40
2018,07,12,03,33,13.40
2018,07,12,03,34,13.40
2018,07,12,03,35,13.40
2018,07,12,03,36,13.40
2018,07,12,03,37,13.40
2018,07,12,03,38,13.40
2018,07,12,03,39,13.40
2018,07,12,03,40,13.40
2018,07,12,03,41,13.40
2018,07,12,03,42,13.40
2018,07,12,03,43,13.40
2018,07,12,03,44,13.40
2018,07,12,03,45,13.40
2018,07,12,03,46,13.40
2018,07,12,03,47,13.40
2018,07,12,03,48,13.40
2018,07,12,03,49,13.40
2018,07,12,03,50,13.40
2018,07,12,03,51,13.30
2018,07,12,03,52,13.30
2018,07,12,03,53,13.30
2018,07,12,03,54,13.30
2018,07,12,03,55,13.30
2018,07,12,03,56,13.30
2018,07,12,03,57,13.30
2018,07,12,03,58,13.30
2018,07,12,03,59,13.30
2018,07,12,04,00,13.30
2018,07,12,04,01,13.30
2018,07,12,04,02,13.30
2018,07,12,04,03,13.30
2018,07,12,04,04,13.30
2018,07,12,04,05,13.30
2018,07,12,04,06,13.30
2018,07,12,04,07,13.30
2018,07,12,04,08,13.30
2018,07,12,04,09,13.30
2018,07,12,04,10,13.30
2018,07,12,04,11,13.30
2018,07,12,04,12,13.30
2018,07,12,04,13,13.20
2018,07,12,04,14,13.20
2018,07,12,04,15,13.20
2018,07,12,04,16,13.20
2018,07,12,04,17,13.20
2018,07,12,04,18,13.20
2018,07,12,04,19,13.20
2018,07,12,04,20,13.20
2018,07,12,04,21,13.20
2018,07,12,04,22,13.20
2018,07,12,04,23,13.20
2018,07,12,04,24,13.20
2018,07,12,04,25,13.20
2018,07,12,04,26,13.20
2018,07,12,04,27,13.20
2018,07,12,04,28,13.20
2018,07,12,04,29,13.20
2018,07,12,04,30,13.20
2018,07,12,04,31,13.20
2018,07,12,04,32,13.20
2018,07,12,04,33,13.10
2018,07,12,04,34,13.10
2018,07,12,04,35,13.10
2018,07,12,04,36,13.10
2018,07,12,04,37,13.10
2018,07,12,04,38,13.00
2018,07,12,04,39,13.00
2018,07,12,04,40,13.10
2018,07,12,04,41,13.10
2018,07,12,04,42,13.10
2018,07,12,04,43,13.00
2018,07,12,04,44,13.00
2018,07,12,04,45,13.00
2018,07,12,04,46,13.00
2018,07,12,04,47,13.10
2018,07,12,04,48,13.10
2018,07,12,04,49,13.10
2018,07,12,04,50,13.10
2018,07,12,04,51,13.10
2018,07,12,04,52,13.10
2018,07,12,04,53,13.10
2018,07,12,04,54,13.10
2018,07,12,04,55,13.10
2018,07,12,04,56,13.10
2018,07,12,04,57,13.10
2018,07,12,04,58,13.20
2018,07,12,04,59,13.20
2018,07,12,05,00,13.20
2018,07,12,05,01,13.20
2018,07,12,05,02,13.20
2018,07,12,05,03,13.20
2018,07,12,05,04,13.10
2018,07,12,05,05,13.10
2018,07,12,05,06,13.10
2018,07,12,05,07,13.10
2018,07,12,05,08,13.10
2018,07,12,05,09,13.10
2018,07,12,05,10,13.10
2018,07,12,05,11,13.10
2018,07,12,05,12,13.10
2018,07,12,05,13,13.10
2018,07,12,05,14,13.10
2018,07,12,05,15,13.10
2018,07,12,05,16,13.10
2018,07,12,05,17,13.00
2018,07,12,05,18,13.00
2018,07,12,05,19,13.00
2018,07,12,05,20,13.00
2018,07,12,05,21,13.00
2018,07,12,05,22,13.00
2018,07,12,05,23,13.00
2018,07,12,05,24,13.00
2018,07,12,05,25,12.90
2018,07,12,05,26,12.90
2018,07,12,05,27,12.90
2018,07,12,05,28,12.90
2018,07,12,05,29,12.90
2018,07,12,05,30,12.90
2018,07,12,05,31,12.90
2018,07,12,05,32,12.90
2018,07,12,05,33,12.90
2018,07,12,05,34,12.90
2018,07,12,05,35,12.90
2018,07,12,05,36,12.90
2018,07,12,05,37,12.90
2018,07,12,05,38,12.90
2018,07,12,05,39,12.90
2018,07,12,05,40,12.90
2018,07,12,05,41,12.80
2018,07,12,05,42,12.80
2018,07,12,05,43,12.80
2018,07,12,05,44,12.80
2018,07,12,05,45,12.80
2018,07,12,05,46,12.80
2018,07,12,05,47,12.80
2018,07,12,05,48,12.80
2018,07,12,05,49,12.80
2018,07,12,05,50,12.80
2018,07,12,05,51,12.80
2018,07,12,05,52,12.80
2018,07,12,05,53,12.80
2018,07,12,05,54,12.80
2018,07,12,05,55,12.80
2018,07,12,05,56,12.80
2018,07,12,05,57,12.80
2018,07,12,05,58,12.80
2018,07,12,05,59,12.80
2018,07,12,06,00,12.80
2018,07,12,06,01,12.80
2018,07,12,06,02,12.80
2018,07,12,06,03,12.80
2018,07,12,06,04,12.80
2018,07,12,06,05,12.80
2018,07,12,06,06,12.80
2018,07,12,06,07,12.80
2018,07,12,06,08,12.80
2018,07,12,06,09,12.80
2018,07,12,06,10,12.80
2018,07,12,06,11,12.80
2018,07,12,06,12,12.80
2018,07,12,06,13,12.80
2018,07,12,06,14,12.80
2018,07,12,06,15,12.80
2018,07,12,06,16,12.80
2018,07,12,06,17,12.80
2018,07,12,06,18,12.80
2018,07,12,06,19,12.80
2018,07,12,06,20,12.80
2018,07,12,06,21,12.80
2018,07,12,06,22,12.80
2018,07,12,06,23,12.80
2018,07,12,06,24,12.80
2018,07,12,06,25,12.80
2018,07,12,06,26,12.80
2018,07,12,06,27,12.80
2018,07,12,06,28,12.80
2018,07,12,06,29,12.80
2018,07,12,06,30,12.80
2018,07,12,06,31,12.90
2018,07,12,06,32,12.90
2018,07,12,06,33,12.90
2018,07,12,06,34,12.90
2018,07,12,06,35,12.90
2018,07,12,06,36,12.90
2018,07,12,06,37,12.90
2018,07,12,06,38,13.00
2018,07,12,06,39,13.00
2018,07,12,06,40,13.00
2018,07,12,06,41,13.00
2018,07,12,06,42,13.00
2018,07,12,06,43,13.10
2018,07,12,06,44,13.10
2018,07,12,06,45,13.10
2018,07,12,06,46,13.10
2018,07,12,06,47,13.20
2018,07,12,06,48,13.20
2018,07,12,06,49,13.20
2018,07,12,06,50,13.20
2018,07,12,06,51,13.20
2018,07,12,06,52,13.20
2018,07,12,06,53,13.30
2018,07,12,06,54,13.30
2018,07,12,06,55,13.30
2018,07,12,06,56,13.30
2018,07,12,06,57,13.30
2018,07,12,06,58,13.40
2018,07,12,06,59,13.40
2018,07,12,07,00,13.40
2018,07,12,07,01,13.50
2018,07,12,07,02,13.50
2018,07,12,07,03,13.60
2018,07,12,07,04,13.60
2018,07,12,07,05,13.60
2018,07,12,07,06,13.70
2018,07,12,07,07,13.70
2018,07,12,07,08,13.80
2018,07,12,07,09,13.80
2018,07,12,07,10,13.90
2018,07,12,07,11,13.90
2018,07,12,07,12,14.00
2018,07,12,07,13,14.00
2018,07,12,07,14,14.10
2018,07,12,07,15,14.10
2018,07,12,07,16,14.20
2018,07,12,07,17,14.20
2018,07,12,07,18,14.20
2018,07,12,07,19,14.30
2018,07,12,07,20,14.40
2018,07,12,07,21,14.50
2018,07,12,07,22,14.60
2018,07,12,07,23,14.70
2018,07,12,07,24,14.80
2018,07,12,07,25,14.90
2018,07,12,07,26,15.00
2018,07,12,07,27,15.10
2018,07,12,07,28,15.20
2018,07,12,07,29,15.30
2018,07,12,07,30,15.40
2018,07,12,07,31,15.50
2018,07,12,07,32,15.60
2018,07,12,07,33,15.70
2018,07,12,07,34,15.80
2018,07,12,07,35,15.80
2018,07,12,07,36,15.90
2018,07,12,07,37,16.00
2018,07,12,07,38,16.10
2018,07,12,07,39,16.20
2018,07,12,07,40,16.20
2018,07,12,07,41,16.30
2018,07,12,07,42,16.40
2018,07,12,07,43,16.50
2018,07,12,07,44,16.60
2018,07,12,07,45,16.60
2018,07,12,07,46,16.70
2018,07,12,07,47,16.80
2018,07,12,07,48,16.90
2018,07,12,07,49,17.00
2018,07,12,07,50,17.10
2018,07,12,07,51,17.20
2018,07,12,07,52,17.30
2018,07,12,07,53,17.30
2018,07,12,07,54,17.40
2018,07,12,07,55,17.50
2018,07,12,07,56,17.50
2018,07,12,07,57,17.60
2018,07,12,07,58,17.70
2018,07,12,07,59,17.70
2018,07,12,08,00,17.80
2018,07,12,08,01,17.80
2018,07,12,08,02,17.90
2018,07,12,08,03,17.90
2018,07,12,08,04,17.90
2018,07,12,08,05,18.00
2018,07,12,08,06,18.00
2018,07,12,08,07,18.10
2018,07,12,08,08,18.10
2018,07,12,08,09,18.10
2018,07,12,08,10,18.10
2018,07,12,08,11,18.20
2018,07,12,08,12,18.20
2018,07,12,08,13,18.20
2018,07,12,08,14,18.20
2018,07,12,08,15,18.20
2018,07,12,08,16,18.20
2018,07,12,08,17,18.20
2018,07,12,08,18,18.20
2018,07,12,08,19,18.20
2018,07,12,08,20,18.30
2018,07,12,08,21,18.30
2018,07,12,08,22,18.30
2018,07,12,08,23,18.40
2018,07,12,08,24,18.40
2018,07,12,08,25,18.50
2018,07,12,08,26,18.50
2018,07,12,08,27,18.50
2018,07,12,08,28,18.60
2018,07,12,08,29,18.60
2018,07,12,08,30,18.60
2018,07,12,08,31,18.70
2018,07,12,08,32,18.70
2018,07,12,08,33,18.80
2018,07,12,08,34,18.80
2018,07,12,08,35,18.80
2018,07,12,08,36,18.90
2018,07,12,08,37,18.90
2018,07,12,08,38,18.90
2018,07,12,08,39,19.00
2018,07,12,08,40,19.00
2018,07,12,08,41,19.00
2018,07,12,08,42,19.00
2018,07,12,08,43,19.00
2018,07,12,08,44,19.00
2018,07,12,08,45,19.00
2018,07,12,08,46,19.00
2018,07,12,08,47,19.00
2018,07,12,08,48,19.00
2018,07,12,08,49,19.10
2018,07,12,08,50,19.10
2018,07,12,08,51,19.20
2018,07,12,08,52,19.20
2018,07,12,08,53,19.20
2018,07,12,08,54,19.20
2018,07,12,08,55,19.20
2018,07,12,08,56,19.20
2018,07,12,08,57,19.20
2018,07,12,08,58,19.20
2018,07,12,08,59,19.20
2018,07,12,09,00,19.20
2018,07,12,09,01,19.20
2018,07,12,09,02,19.20
2018,07,12,09,03,19.20
2018,07,12,09,04,19.20
2018,07,12,09,05,19.20
2018,07,12,09,06,19.20
2018,07,12,09,07,19.30
2018,07,12,09,08,19.30
2018,07,12,09,09,19.30
2018,07,12,09,10,19.30
2018,07,12,09,11,19.40
2018,07,12,09,12,19.40
2018,07,12,09,13,19.40
2018,07,12,09,14,19.40
2018,07,12,09,15,19.50
2018,07,12,09,16,19.50
2018,07,12,09,17,19.40
2018,07,12,09,18,19.40
2018,07,12,09,19,19.40
2018,07,12,09,20,19.40
2018,07,12,09,21,19.40
2018,07,12,09,22,19.50
2018,07,12,09,23,19.50
2018,07,12,09,24,19.50
2018,07,12,09,25,19.50
2018,07,12,09,26,19.50
2018,07,12,09,27,19.50
2018,07,12,09,28,19.50
2018,07,12,09,29,19.50
2018,07,12,09,30,19.60
2018,07,12,09,31,19.60
2018,07,12,09,32,19.60
2018,07,12,09,33,19.70
2018,07,12,09,34,19.70
2018,07,12,09,35,19.70
2018,07,12,09,36,19.70
2018,07,12,09,37,19.70
2018,07,12,09,38,19.70
2018,07,12,09,39,19.80
2018,07,12,09,40,19.80
2018,07,12,09,41,19.80
2018,07,12,09,42,19.80
2018,07,12,09,43,19.80
2018,07,12,09,44,19.80
2018,07,12,09,45,19.80
2018,07,12,09,46,19.80
2018,07,12,09,47,19.80
2018,07,12,09,48,19.80
2018,07,12,09,49,19.80
2018,07,12,09,50,19.80
2018,07,12,09,51,19.80
2018,07,12,09,52,19.80
2018,07,12,09,53,19.80
2018,07,12,09,54,19.80
2018,07,12,09,55,19.80
2018,07,12,09,56,19.80
2018,07,12,09,57,19.80
2018,07,12,09,58,19.80
2018,07,12,09,59,19.80
2018,07,12,10,00,19.80
2018,07,12,10,01,19.80
2018,07,12,10,02,19.90
2018,07,12,10,03,19.90
2018,07,12,10,04,19.90
2018,07,12,10,05,19.90
2018,07,12,10,06,19.90
2018,07,12,10,07,20.00
2018,07,12,10,08,20.00
2018,07,12,10,09,20.10
2018,07,12,10,10,20.10
2018,07,12,10,11,20.10
2018,07,12,10,12,20.10
2018,07,12,10,13,20.10
2018,07,12,10,14,20.10
2018,07,12,10,15,20.20
2018,07,12,10,16,20.20
2018,07,12,10,17,20.20
2018,07,12,10,18,20.30
2018,07,12,10,19,20.30
2018,07,12,10,20,20.30
2018,07,12,10,21,20.30
2018,07,12,10,22,20.40
2018,07,12,10,23,20.40
2018,07,12,10,24,20.40
2018,07,12,10,25,20.50
2018,07,12,10,26,20.50
2018,07,12,10,27,20.50
2018,07,12,10,28,20.60
2018,07,12,10,29,20.60
2018,07,12,10,30,20.70
2018,07,12,10,31,20.70
2018,07,12,10,32,20.70
2018,07,12,10,33,20.80
2018,07,12,10,34,20.80
2018,07,12,10,35,20.80
2018,07,12,10,36,20.90
2018,07,12,10,37,20.90
2018,07,12,10,38,21.00
2018,07,12,10,39,21.10
2018,07,12,10,40,21.10
2018,07,12,10,41,21.10
2018,07,12,10,42,21.10
2018,07,12,10,43,21.00
2018,07,12,10,44,21.00
2018,07,12,10,45,20.90
2018,07,12,10,46,20.90
2018,07,12,10,47,20.90
2018,07,12,10,48,20.90
2018,07,12,10,49,20.90
2018,07,12,10,50,20.90
2018,07,12,10,51,20.90
2018,07,12,10,52,20.80
2018,07,12,10,53,20.80
2018,07,12,10,54,20.80
2018,07,12,10,55,20.80
2018,07,12,10,56,20.90
2018,07,12,10,57,20.90
2018,07,12,10,58,20.90
2018,07,12,10,59,21.00
2018,07,12,11,00,21.10
2018,07,12,11,01,21.10
2018,07,12,11,02,21.20
2018,07,12,11,03,21.30
2018,07,12,11,04,21.30
2018,07,12,11,05,21.40
2018,07,12,11,06,21.50
2018,07,12,11,07,21.60
2018,07,12,11,08,21.80
2018,07,12,11,09,21.90
2018,07,12,11,10,22.00
2018,07,12,11,11,22.10
2018,07,12,11,12,22.20
2018,07,12,11,13,22.30
2018,07,12,11,14,22.40
2018,07,12,11,15,22.40
2018,07,12,11,16,22.40
2018,07,12,11,17,22.50
2018,07,12,11,18,22.50
2018,07,12,11,19,22.50
2018,07,12,11,20,22.50
2018,07,12,11,21,22.40
2018,07,12,11,22,22.40
2018,07,12,11,23,22.40
2018,07,12,11,24,22.40
2018,07,12,11,25,22.40
2018,07,12,11,26,22.40
2018,07,12,11,27,22.40
2018,07,12,11,28,22.50
2018,07,12,11,29,22.60
2018,07,12,11,30,22.60
2018,07,12,11,31,22.70
2018,07,12,11,32,22.80
2018,07,12,11,33,22.90
2018,07,12,11,34,23.00
2018,07,12,11,35,23.00
2018,07,12,11,36,23.10
2018,07,12,11,37,23.10
2018,07,12,11,38,23.20
2018,07,12,11,39,23.10
2018,07,12,11,40,23.00
2018,07,12,11,41,23.00
2018,07,12,11,42,22.90
2018,07,12,11,43,22.80
2018,07,12,11,44,22.80
2018,07,12,11,45,22.80
2018,07,12,11,46,22.80
2018,07,12,11,47,22.70
2018,07,12,11,48,22.60
2018,07,12,11,49,22.60
2018,07,12,11,50,22.50
2018,07,12,11,51,22.50
2018,07,12,11,52,22.40
2018,07,12,11,53,22.40
2018,07,12,11,54,22.40
2018,07,12,11,55,22.40
2018,07,12,11,56,22.40
2018,07,12,11,57,22.30
2018,07,12,11,58,22.30
2018,07,12,11,59,22.30
2018,07,12,12,00,22.30
2018,07,12,12,01,22.30
2018,07,12,12,02,22.20
2018,07,12,12,03,22.20
2018,07,12,12,04,22.10
2018,07,12,12,05,22.10
2018,07,12,12,06,22.10
2018,07,12,12,07,22.10
2018,07,12,12,08,22.10
2018,07,12,12,09,22.10
2018,07,12,12,10,22.20
2018,07,12,12,11,22.30
2018,07,12,12,12,22.30
2018,07,12,12,13,22.40
2018,07,12,12,14,22.50
2018,07,12,12,15,22.60
2018,07,12,12,16,22.70
2018,07,12,12,17,22.80
2018,07,12,12,18,22.80
2018,07,12,12,19,22.80
2018,07,12,12,20,22.90
2018,07,12,12,21,23.00
2018,07,12,12,22,23.10
2018,07,12,12,23,23.20
2018,07,12,12,24,23.20
2018,07,12,12,25,23.10
2018,07,12,12,26,23.00
2018,07,12,12,27,22.90
2018,07,12,12,28,23.00
2018,07,12,12,29,23.00
2018,07,12,12,30,23.00
2018,07,12,12,31,23.00
2018,07,12,12,32,23.00
2018,07,12,12,33,23.00
2018,07,12,12,34,23.00
2018,07,12,12,35,22.90
2018,07,12,12,36,23.00
2018,07,12,12,37,23.00
2018,07,12,12,38,23.00
2018,07,12,12,39,23.10
2018,07,12,12,40,23.20
2018,07,12,12,41,23.20
2018,07,12,12,42,23.30
2018,07,12,12,43,23.30
2018,07,12,12,44,23.30
2018,07,12,12,45,23.40
2018,07,12,12,46,23.50
2018,07,12,12,47,23.50
2018,07,12,12,48,23.60
2018,07,12,12,49,23.60
2018,07,12,12,50,23.60
2018,07,12,12,51,23.60
2018,07,12,12,52,23.60
2018,07,12,12,53,23.60
2018,07,12,12,54,23.60
2018,07,12,12,55,23.60
2018,07,12,12,56,23.60
2018,07,12,12,57,23.60
2018,07,12,12,58,23.50
2018,07,12,12,59,23.50
2018,07,12,13,00,23.40
2018,07,12,13,01,23.40
2018,07,12,13,02,23.30
2018,07,12,13,03,23.30
2018,07,12,13,04,23.30
2018,07,12,13,05,23.20
2018,07,12,13,06,23.20
2018,07,12,13,07,23.20
2018,07,12,13,08,23.10
2018,07,12,13,09,23.10
2018,07,12,13,10,23.10
2018,07,12,13,11,23.10
2018,07,12,13,12,23.10
2018,07,12,13,13,23.10
2018,07,12,13,14,23.20
2018,07,12,13,15,23.30
2018,07,12,13,16,23.40
2018,07,12,13,17,23.40
2018,07,12,13,18,23.40
2018,07,12,13,19,23.40
2018,07,12,13,20,23.40
2018,07,12,13,21,23.40
2018,07,12,13,22,23.50
2018,07,12,13,23,23.60
2018,07,12,13,24,23.60
2018,07,12,13,25,23.60
2018,07,12,13,26,23.60
2018,07,12,13,27,23.60
2018,07,12,13,28,23.60
2018,07,12,13,29,23.50
2018,07,12,13,30,23.40
2018,07,12,13,31,23.30
2018,07,12,13,32,23.20
2018,07,12,13,33,23.20
2018,07,12,13,34,23.10
2018,07,12,13,35,23.10
2018,07,12,13,36,23.20
2018,07,12,13,37,23.20
2018,07,12,13,38,23.20
2018,07,12,13,39,23.20
2018,07,12,13,40,23.20
2018,07,12,13,41,23.20
2018,07,12,13,42,23.20
2018,07,12,13,43,23.30
2018,07,12,13,44,23.30
2018,07,12,13,45,23.40
2018,07,12,13,46,23.50
2018,07,12,13,47,23.50
2018,07,12,13,48,23.60
2018,07,12,13,49,23.60
2018,07,12,13,50,23.70
2018,07,12,13,51,23.70
2018,07,12,13,52,23.80
2018,07,12,13,53,23.80
2018,07,12,13,54,23.80
2018,07,12,13,55,23.90
2018,07,12,13,56,23.90
2018,07,12,13,57,24.00
2018,07,12,13,58,24.00
2018,07,12,13,59,24.00
2018,07,12,14,00,24.00
2018,07,12,14,01,24.00
2018,07,12,14,02,24.00
2018,07,12,14,03,24.00
2018,07,12,14,04,24.00
2018,07,12,14,05,24.10
2018,07,12,14,06,24.10
2018,07,12,14,07,24.10
2018,07,12,14,08,24.00
2018,07,12,14,09,23.90
2018,07,12,14,10,23.90
2018,07,12,14,11,23.90
2018,07,12,14,12,23.80
2018,07,12,14,13,23.80
2018,07,12,14,14,23.80
2018,07,12,14,15,23.80
2018,07,12,14,16,23.80
2018,07,12,14,17,23.80
2018,07,12,14,18,23.80
2018,07,12,14,19,23.80
2018,07,12,14,20,23.80
2018,07,12,14,21,23.80
2018,07,12,14,22,23.80
2018,07,12,14,23,23.70
2018,07,12,14,24,23.70
2018,07,12,14,25,23.70
2018,07,12,14,26,23.80
2018,07,12,14,27,23.80
2018,07,12,14,28,23.70
2018,07,12,14,29,23.70
2018,07,12,14,30,23.70
2018,07,12,14,31,23.70
2018,07,12,14,32,23.70
2018,07,12,14,33,23.60
2018,07,12,14,34,23.60
2018,07,12,14,35,23.60
2018,07,12,14,36,23.60
2018,07,12,14,37,23.60
2018,07,12,14,38,23.70
2018,07,12,14,39,23.70
2018,07,12,14,40,23.80
2018,07,12,14,41,23.90
2018,07,12,14,42,24.00
2018,07,12,14,43,24.00
2018,07,12,14,44,24.10
2018,07,12,14,45,24.20
2018,07,12,14,46,24.30
2018,07,12,14,47,24.30
2018,07,12,14,48,24.40
2018,07,12,14,49,24.40
2018,07,12,14,50,24.50
2018,07,12,14,51,24.60
2018,07,12,14,52,24.60
2018,07,12,14,53,24.70
2018,07,12,14,54,24.70
2018,07,12,14,55,24.70
2018,07,12,14,56,24.70
2018,07,12,14,57,24.70
2018,07,12,14,58,24.70
2018,07,12,14,59,24.70
2018,07,12,15,00,24.80
2018,07,12,15,01,24.80
2018,07,12,15,02,24.80
2018,07,12,15,03,24.90
2018,07,12,15,04,25.00
2018,07,12,15,05,25.00
2018,07,12,15,06,25.10
2018,07,12,15,07,25.10
2018,07,12,15,08,25.10
2018,07,12,15,09,25.00
2018,07,12,15,10,25.00
2018,07,12,15,11,25.10
2018,07,12,15,12,25.10
2018,07,12,15,13,25.10
2018,07,12,15,14,25.10
2018,07,12,15,15,25.00
2018,07,12,15,16,25.00
2018,07,12,15,17,25.00
2018,07,12,15,18,25.00
2018,07,12,15,19,25.00
2018,07,12,15,20,25.10
2018,07,12,15,21,25.10
2018,07,12,15,22,25.10
2018,07,12,15,23,25.20
2018,07,12,15,24,25.20
2018,07,12,15,25,25.30
2018,07,12,15,26,25.30
2018,07,12,15,27,25.40
2018,07,12,15,28,25.50
2018,07,12,15,29,25.60
2018,07,12,15,30,25.60
2018,07,12,15,31,25.60
2018,07,12,15,32,25.70
2018,07,12,15,33,25.70
2018,07,12,15,34,25.70
2018,07,12,15,35,25.80
2018,07,12,15,36,25.80
2018,07,12,15,37,25.80
2018,07,12,15,38,25.90
2018,07,12,15,39,25.90
2018,07,12,15,40,26.00
2018,07,12,15,41,26.10
2018,07,12,15,42,26.10
2018,07,12,15,43,26.20
2018,07,12,15,44,26.30
2018,07,12,15,45,26.30
2018,07,12,15,46,26.40
2018,07,12,15,47,26.40
2018,07,12,15,48,26.50
2018,07,12,15,49,26.50
2018,07,12,15,50,26.50
2018,07,12,15,51,26.50
2018,07,12,15,52,26.50
2018,07,12,15,53,26.50
2018,07,12,15,54,26.50
2018,07,12,15,55,26.40
2018,07,12,15,56,26.40
2018,07,12,15,57,26.30
2018,07,12,15,58,26.30
2018,07,12,15,59,26.30
2018,07,12,16,00,26.30
2018,07,12,16,01,26.30
2018,07,12,16,02,26.30
2018,07,12,16,03,26.30
2018,07,12,16,04,26.30
2018,07,12,16,05,26.30
2018,07,12,16,06,26.30
2018,07,12,16,07,26.20
2018,07,12,16,08,26.20
2018,07,12,16,09,26.20
2018,07,12,16,10,26.10
2018,07,12,16,11,26.10
2018,07,12,16,12,26.20
2018,07,12,16,13,26.20
2018,07,12,16,14,26.30
2018,07,12,16,15,26.30
2018,07,12,16,16,26.30
2018,07,12,16,17,26.40
2018,07,12,16,18,26.40
2018,07,12,16,19,26.40
2018,07,12,16,20,26.40
2018,07,12,16,21,26.40
2018,07,12,16,22,26.40
2018,07,12,16,23,26.50
2018,07,12,16,24,26.60
2018,07,12,16,25,26.60
2018,07,12,16,26,26.70
2018,07,12,16,27,26.60
2018,07,12,16,28,26.60
2018,07,12,16,29,26.70
2018,07,12,16,30,26.70
2018,07,12,16,31,26.70
2018,07,12,16,32,26.70
2018,07,12,16,33,26.70
2018,07,12,16,34,26.70
2018,07,12,16,35,26.80
2018,07,12,16,36,26.80
2018,07,12,16,37,26.80
2018,07,12,16,38,26.80
2018,07,12,16,39,26.80
2018,07,12,16,40,26.80
2018,07,12,16,41,26.80
2018,07,12,16,42,26.80
2018,07,12,16,43,26.80
2018,07,12,16,44,26.80
2018,07,12,16,45,26.90
2018,07,12,16,46,26.90
2018,07,12,16,47,26.90
2018,07,12,16,48,26.90
2018,07,12,16,49,26.90
2018,07,12,16,50,26.90
2018,07,12,16,51,27.00
2018,07,12,16,52,27.10
2018,07,12,16,53,27.10
2018,07,12,16,54,27.10
2018,07,12,16,55,27.10
2018,07,12,16,56,27.10
2018,07,12,16,57,27.10
2018,07,12,16,58,27.00
2018,07,12,16,59,26.90
2018,07,12,17,00,26.90
2018,07,12,17,01,26.80
2018,07,12,17,02,26.80
2018,07,12,17,03,26.80
2018,07,12,17,04,26.80
2018,07,12,17,05,26.80
2018,07,12,17,06,26.80
2018,07,12,17,07,26.70
2018,07,12,17,08,26.70
2018,07,12,17,09,26.60
2018,07,12,17,10,26.50
2018,07,12,17,11,26.40
2018,07,12,17,12,26.30
2018,07,12,17,13,26.30
2018,07,12,17,14,26.30
2018,07,12,17,15,26.20
2018,07,12,17,16,26.20
2018,07,12,17,17,26.20
2018,07,12,17,18,26.20
2018,07,12,17,19,26.30